This is the latest recevied weather packets stored in our database for station/object NK7E-2. If no packets are shown the sender has not sent any weather packets the latest 10 day(s).
| Time | Temp. | Humidity | Pressure | Rain* | Wind** | Luminosity | Snow |
|---|---|---|---|---|---|---|---|
| 1777928716 | 25.56° C | 18% | 1021.3 hPa | 0 mm | - | - | - |
| 1777928116 | 25.56° C | 18% | 1021.2 hPa | 0 mm | - | - | - |
| 1777927516 | 25.56° C | 19% | 1021.6 hPa | 0 mm | - | - | - |
| 1777926916 | 25° C | 19% | 1021.4 hPa | 0 mm | - | - | - |
| 1777926316 | 24.44° C | 20% | 1021.8 hPa | 0 mm | - | - | - |
| 1777925716 | 25° C | 17% | 1021.7 hPa | 0 mm | - | - | - |
| 1777925116 | 25° C | 17% | 1021.5 hPa | 0 mm | - | - | - |
| 1777924516 | 25° C | 15% | 1021.6 hPa | 0 mm | - | - | - |
| 1777923916 | 25° C | 16% | 1021.4 hPa | 0 mm | - | - | - |
| 1777923316 | 25° C | 15% | 1021.6 hPa | 0 mm | - | - | - |
| 1777922716 | 25.56° C | 15% | 1021.7 hPa | 0 mm | - | - | - |
| 1777922116 | 25.56° C | 15% | 1021.8 hPa | 0 mm | - | - | - |
| 1777921516 | 25° C | 14% | 1021.8 hPa | 0 mm | - | - | - |
| 1777920916 | 25° C | 15% | 1022.5 hPa | 0 mm | - | - | - |
| 1777920316 | 25° C | 13% | 1022.6 hPa | 0 mm | - | - | - |
| 1777919716 | 25.56° C | 15% | 1022.4 hPa | 0 mm | - | - | - |
| 1777919116 | 25° C | 17% | 1022.9 hPa | 0 mm | - | - | - |
| 1777918516 | 24.44° C | 18% | 1022.5 hPa | 0 mm | - | - | - |
| 1777917916 | 24.44° C | 20% | 1022.6 hPa | 0 mm | - | - | - |
| 1777917318 | 24.44° C | 19% | 1022.6 hPa | 0 mm | - | - | - |
| 1777916718 | 24.44° C | 20% | 1022.9 hPa | 0 mm | - | - | - |
| 1777916118 | 24.44° C | 22% | 1022.9 hPa | 0 mm | - | - | - |
| 1777915517 | 24.44° C | 25% | 1022.7 hPa | 0 mm | - | - | - |
| 1777914917 | 23.89° C | 24% | 1022.8 hPa | 0 mm | - | - | - |
| 1777914317 | 23.89° C | 24% | 1022.8 hPa | 0 mm | - | - | - |
* Rain latest hour (hover to see other rain measurements)
** Current wind speed in m/s (hover to see current wind gust speed)